| time (UTC) | temp C | wind direction | speed KPH | gust KPH | rain 1hr cm | rain 24hr cm | rain mn cm | humidity % | barometer mb |
| 20260506192709 | 19 | 180 | 0.0 | 1.6 | 0.00 | 0.00 | 0.00 | 80 | 1007.7 |
| 20260506192206 | 19 | 224 | 8.0 | 11.3 | 0.00 | 0.00 | 0.00 | 80 | 1007.7 |
| 20260506191657 | 19 | 192 | 8.0 | 11.3 | 0.00 | 0.00 | 0.00 | 80 | 1007.7 |
| 20260506191153 | 19 | 193 | 4.8 | 6.4 | 0.00 | 0.00 | 0.00 | 80 | 1007.6 |
| 20260506190651 | 19 | 162 | 6.4 | 9.7 | 0.00 | 0.00 | 0.00 | 79 | 1007.9 |
| 20260506190147 | 19 | 207 | 3.2 | 4.8 | 0.00 | 0.00 | 0.00 | 79 | 1007.8 |
| 20260506185644 | 19 | 107 | 1.6 | 3.2 | 0.00 | 0.00 | 0.00 | 79 | 1008.0 |
| 20260506185140 | 19 | 198 | 3.2 | 3.2 | 0.00 | 0.00 | 0.00 | 80 | 1008.0 |
| 20260506184632 | 19 | 225 | 6.4 | 11.3 | 0.00 | 0.00 | 0.00 | 79 | 1007.8 |
| 20260506184130 | 18 | 230 | 3.2 | 6.4 | 0.00 | 0.00 | 0.00 | 80 | 1007.9 |
| 20260506183626 | 18 | 206 | 3.2 | 3.2 | 0.00 | 0.00 | 0.00 | 81 | 1008.1 |
| 20260506183122 | 18 | 246 | 3.2 | 4.8 | 0.00 | 0.00 | 0.00 | 81 | 1008.2 |
| 20260506182620 | 18 | 359 | 3.2 | 3.2 | 0.00 | 0.00 | 0.00 | 81 | 1008.1 |
| 20260506182116 | 19 | 220 | 3.2 | 9.7 | 0.00 | 0.00 | 0.00 | 78 | 1008.3 |
| 20260506181615 | 19 | 1 | 1.6 | 3.2 | 0.00 | 0.00 | 0.00 | 77 | 1008.3 |
| 20260506181111 | 20 | 207 | 4.8 | 9.7 | 0.00 | 0.00 | 0.00 | 76 | 1008.3 |
| 20260506180608 | 19 | 188 | 4.8 | 6.4 | 0.00 | 0.00 | 0.00 | 76 | 1008.2 |
| 20260506180105 | 19 | 195 | 3.2 | 4.8 | 0.00 | 0.00 | 0.00 | 76 | 1008.0 |
| 20260506175601 | 19 | 244 | 9.7 | 14.5 | 0.00 | 0.00 | 0.00 | 76 | 1008.3 |
| 20260506175057 | 19 | 251 | 3.2 | 4.8 | 0.00 | 0.00 | 0.00 | 76 | 1008.4 |
| 20260506174556 | 19 | 328 | 4.8 | 4.8 | 0.00 | 0.00 | 0.00 | 75 | 1008.5 |
| 20260506174052 | 19 | 192 | 11.3 | 14.5 | 0.00 | 0.00 | 0.00 | 77 | 1008.3 |
| 20260506173550 | 19 | 229 | 3.2 | 3.2 | 0.00 | 0.00 | 0.00 | 77 | 1008.4 |
| 20260506173046 | 20 | 216 | 3.2 | 4.8 | 0.00 | 0.00 | 0.00 | 75 | 1008.5 |
| 20260506172543 | 20 | 211 | 6.4 | 9.7 | 0.00 | 0.00 | 0.00 | 76 | 1008.7 |
| 20260506172034 | 20 | 211 | 9.7 | 12.9 | 0.00 | 0.00 | 0.00 | 75 | 1008.2 |
| 20260506171531 | 20 | 175 | 4.8 | 9.7 | 0.00 | 0.00 | 0.00 | 75 | 1008.4 |
| 20260506171029 | 20 | 261 | 8.0 | 11.3 | 0.00 | 0.00 | 0.00 | 75 | 1008.5 |
| 20260506170526 | 20 | 183 | 9.7 | 12.9 | 0.00 | 0.00 | 0.00 | 75 | 1008.6 |
| 20260506170023 | 21 | 206 | 12.9 | 16.1 | 0.00 | 0.00 | 0.00 | 73 | 1008.7 |
| 20260506165521 | 21 | 215 | 3.2 | 3.2 | 0.00 | 0.00 | 0.00 | 74 | 1008.8 |
| 20260506165012 | 20 | 167 | 6.4 | 12.9 | 0.00 | 0.00 | 0.00 | 78 | 1008.7 |
| 20260506164509 | 20 | 260 | 1.6 | 3.2 | 0.00 | 0.00 | 0.00 | 77 | 1009.0 |
| 20260506164007 | 20 | 193 | 1.6 | 4.8 | 0.00 | 0.00 | 0.00 | 75 | 1008.7 |
| 20260506163502 | 20 | 232 | 9.7 | 16.1 | 0.00 | 0.00 | 0.00 | 72 | 1008.8 |
| 20260506162956 | 20 | 191 | 1.6 | 1.6 | 0.00 | 0.00 | 0.00 | 74 | 1009.0 |
| 20260506162454 | 20 | 186 | 4.8 | 6.4 | 0.00 | 0.00 | 0.00 | 72 | 1009.4 |
| 20260506161945 | 20 | 153 | 0.0 | 0.0 | 0.00 | 0.00 | 0.00 | 73 | 1009.5 |
| 20260506161443 | 20 | 140 | 3.2 | 4.8 | 0.00 | 0.00 | 0.00 | 72 | 1009.8 |
| 20260506160935 | 20 | 214 | 1.6 | 1.6 | 0.00 | 0.00 | 0.00 | 72 | 1009.8 |
| 20260506160432 | 20 | 129 | 1.6 | 3.2 | 0.00 | 0.00 | 0.00 | 72 | 1009.7 |
| 20260506155929 | 20 | 202 | 3.2 | 3.2 | 0.00 | 0.00 | 0.00 | 71 | 1009.8 |
| 20260506155426 | 20 | 184 | 1.6 | 1.6 | 0.00 | 0.00 | 0.00 | 71 | 1009.7 |
| 20260506153548 | 20 | 135 | 3.2 | 6.4 | 0.00 | 0.00 | 0.00 | 68 | 1009.7 |
| 20260506153046 | 20 | 232 | 4.8 | 6.4 | 0.00 | 0.00 | 0.00 | 66 | 1009.9 |
| 20260506152542 | 20 | 348 | 6.4 | 6.4 | 0.00 | 0.00 | 0.00 | 66 | 1009.8 |
| 20260506152041 | 20 | 232 | 1.6 | 3.2 | 0.00 | 0.00 | 0.00 | 66 | 1009.8 |
| 20260506151538 | 20 | 224 | 9.7 | 12.9 | 0.00 | 0.00 | 0.00 | 65 | 1009.8 |
| 20260506151035 | 21 | 328 | 3.2 | 4.8 | 0.00 | 0.00 | 0.00 | 66 | 1009.8 |
| 20260506150531 | 21 | 194 | 4.8 | 4.8 | 0.00 | 0.00 | 0.00 | 66 | 1009.8 |
| 20260506150029 | 21 | 233 | 6.4 | 11.3 | 0.00 | 0.00 | 0.00 | 65 | 1009.8 |
| 20260506145525 | 20 | 197 | 3.2 | 4.8 | 0.00 | 0.00 | 0.00 | 66 | 1009.7 |
| 20260506145023 | 20 | 209 | 4.8 | 6.4 | 0.00 | 0.00 | 0.00 | 65 | 1009.9 |
| 20260506144519 | 20 | 183 | 4.8 | 9.7 | 0.00 | 0.00 | 0.00 | 64 | 1009.7 |
| 20260506144017 | 20 | 164 | 3.2 | 3.2 | 0.00 | 0.00 | 0.00 | 65 | 1009.8 |
| 20260506143514 | 20 | 249 | 6.4 | 9.7 | 0.00 | 0.00 | 0.00 | 64 | 1009.9 |
| 20260506143013 | 21 | 260 | 3.2 | 4.8 | 0.00 | 0.00 | 0.00 | 65 | 1010.0 |
| 20260506142510 | 21 | 119 | 1.6 | 3.2 | 0.00 | 0.00 | 0.00 | 64 | 1009.9 |
| 20260506142008 | 21 | 206 | 8.0 | 12.9 | 0.00 | 0.00 | 0.00 | 63 | 1009.7 |
| 20260506141506 | 21 | 191 | 16.1 | 22.5 | 0.00 | 0.00 | 0.00 | 63 | 1010.0 |
| 20260506141004 | 21 | 224 | 4.8 | 6.4 | 0.00 | 0.00 | 0.00 | 63 | 1010.0 |
| 20260506140501 | 21 | 44 | 8.0 | 14.5 | 0.00 | 0.00 | 0.00 | 64 | 1009.8 |
| 20260506135957 | 21 | 189 | 6.4 | 6.4 | 0.00 | 0.00 | 0.00 | 64 | 1009.8 |
| 20260506135455 | 20 | 294 | 3.2 | 4.8 | 0.00 | 0.00 | 0.00 | 65 | 1009.7 |
| 20260506134950 | 20 | 137 | 4.8 | 6.4 | 0.00 | 0.00 | 0.00 | 65 | 1009.7 |
| 20260506134446 | 20 | 208 | 1.6 | 3.2 | 0.00 | 0.00 | 0.00 | 66 | 1009.8 |
| 20260506133943 | 20 | 232 | 6.4 | 6.4 | 0.00 | 0.00 | 0.00 | 65 | 1009.8 |
| 20260506133441 | 21 | 208 | 1.6 | 1.6 | 0.00 | 0.00 | 0.00 | 67 | 1009.6 |
| 20260506132937 | 21 | 184 | 14.5 | 20.9 | 0.00 | 0.00 | 0.00 | 65 | 1009.7 |
| 20260506132434 | 21 | 212 | 3.2 | 3.2 | 0.00 | 0.00 | 0.00 | 65 | 1009.6 |
| 20260506131932 | 21 | 203 | 4.8 | 4.8 | 0.00 | 0.00 | 0.00 | 65 | 1009.8 |
| 20260506131428 | 21 | 202 | 3.2 | 3.2 | 0.00 | 0.00 | 0.00 | 65 | 1009.9 |
| 20260506130925 | 21 | 199 | 12.9 | 17.7 | 0.00 | 0.00 | 0.00 | 64 | 1009.9 |
| 20260506130421 | 21 | 192 | 17.7 | 25.7 | 0.00 | 0.00 | 0.00 | 63 | 1009.9 |
| 20260506125920 | 21 | 212 | 6.4 | 6.4 | 0.00 | 0.00 | 0.00 | 65 | 1009.9 |
| 20260506125418 | 21 | 235 | 9.7 | 14.5 | 0.00 | 0.00 | 0.00 | 65 | 1010.0 |
| 20260506124916 | 20 | 258 | 4.8 | 6.4 | 0.00 | 0.00 | 0.00 | 67 | 1009.8 |
| 20260506124413 | 20 | 249 | 8.0 | 12.9 | 0.00 | 0.00 | 0.00 | 68 | 1010.0 |
| 20260506123911 | 20 | 158 | 8.0 | 12.9 | 0.00 | 0.00 | 0.00 | 68 | 1009.9 |
| 20260506123408 | 20 | 269 | 6.4 | 6.4 | 0.00 | 0.00 | 0.00 | 69 | 1010.0 |
| 20260506122906 | 20 | 173 | 12.9 | 17.7 | 0.00 | 0.00 | 0.00 | 70 | 1010.0 |
| 20260506122402 | 20 | 215 | 4.8 | 9.7 | 0.00 | 0.00 | 0.00 | 70 | 1010.0 |
| 20260506121901 | 20 | 197 | 9.7 | 14.5 | 0.00 | 0.00 | 0.00 | 70 | 1010.1 |
| 20260506121357 | 19 | 183 | 3.2 | 6.4 | 0.00 | 0.00 | 0.00 | 71 | 1010.2 |
| 20260506120854 | 18 | 230 | 3.2 | 3.2 | 0.00 | 0.00 | 0.00 | 73 | 1010.1 |
| 20260506120352 | 18 | 167 | 4.8 | 9.7 | 0.00 | 0.00 | 0.00 | 73 | 1010.1 |
| 20260506115849 | 18 | 222 | 6.4 | 9.7 | 0.00 | 0.00 | 0.00 | 73 | 1010.1 |
| 20260506115347 | 18 | 241 | 6.4 | 6.4 | 0.00 | 0.00 | 0.00 | 74 | 1010.2 |
| 20260506114845 | 18 | 183 | 6.4 | 9.7 | 0.00 | 0.00 | 0.00 | 74 | 1010.2 |
| 20260506114342 | 18 | 175 | 6.4 | 9.7 | 0.00 | 0.00 | 0.00 | 74 | 1010.2 |
| 20260506113841 | 18 | 212 | 11.3 | 14.5 | 0.00 | 0.00 | 0.00 | 75 | 1010.3 |
| 20260506113338 | 18 | 200 | 4.8 | 6.4 | 0.00 | 0.00 | 0.00 | 75 | 1010.2 |
| 20260506112834 | 18 | 195 | 6.4 | 9.7 | 0.00 | 0.00 | 0.00 | 75 | 1010.3 |
| 20260506112332 | 18 | 204 | 6.4 | 9.7 | 0.00 | 0.00 | 0.00 | 75 | 1010.1 |
| 20260506111829 | 18 | 209 | 3.2 | 6.4 | 0.00 | 0.00 | 0.00 | 75 | 1010.3 |
| 20260506111328 | 18 | 205 | 14.5 | 16.1 | 0.00 | 0.00 | 0.00 | 75 | 1010.5 |
| 20260506110825 | 18 | 207 | 11.3 | 14.5 | 0.00 | 0.00 | 0.00 | 75 | 1010.3 |
| 20260506110321 | 17 | 182 | 9.7 | 11.3 | 0.00 | 0.00 | 0.00 | 76 | 1010.4 |
| 20260506105818 | 17 | 231 | 9.7 | 14.5 | 0.00 | 0.00 | 0.00 | 77 | 1010.4 |
| 20260506105315 | 17 | 182 | 6.4 | 11.3 | 0.00 | 0.00 | 0.00 | 77 | 1010.3 |
| 20260506104812 | 17 | 232 | 6.4 | 9.7 | 0.00 | 0.00 | 0.00 | 77 | 1010.3 |
| 20260506104310 | 17 | 265 | 4.8 | 11.3 | 0.00 | 0.00 | 0.00 | 77 | 1010.2 |
| 20260506103807 | 17 | 190 | 8.0 | 14.5 | 0.00 | 0.00 | 0.00 | 78 | 1010.2 |
| 20260506103305 | 17 | 190 | 9.7 | 12.9 | 0.00 | 0.00 | 0.00 | 78 | 1010.4 |
| 20260506102802 | 17 | 167 | 9.7 | 12.9 | 0.00 | 0.00 | 0.00 | 79 | 1010.3 |
| 20260506102300 | 17 | 179 | 8.0 | 12.9 | 0.00 | 0.00 | 0.00 | 79 | 1010.5 |
| 20260506101757 | 17 | 202 | 14.5 | 16.1 | 0.00 | 0.00 | 0.00 | 80 | 1010.3 |
| 20260506101253 | 17 | 225 | 14.5 | 17.7 | 0.00 | 0.00 | 0.00 | 80 | 1010.3 |
| 20260506100751 | 17 | 189 | 1.6 | 3.2 | 0.00 | 0.00 | 0.00 | 80 | 1010.1 |
| 20260506100249 | 17 | 157 | 12.9 | 16.1 | 0.00 | 0.00 | 0.00 | 81 | 1010.1 |
| 20260506095747 | 17 | 103 | 3.2 | 3.2 | 0.00 | 0.00 | 0.00 | 81 | 1010.1 |
| 20260506095244 | 17 | 201 | 11.3 | 12.9 | 0.00 | 0.00 | 0.00 | 81 | 1010.3 |
| 20260506094740 | 17 | 208 | 8.0 | 11.3 | 0.00 | 0.00 | 0.00 | 81 | 1010.2 |
| 20260506094239 | 17 | 263 | 6.4 | 9.7 | 0.00 | 0.00 | 0.00 | 81 | 1010.2 |
| 20260506093737 | 17 | 197 | 14.5 | 14.5 | 0.00 | 0.00 | 0.00 | 81 | 1010.2 |
| 20260506093234 | 17 | 228 | 8.0 | 11.3 | 0.00 | 0.00 | 0.00 | 81 | 1010.1 |
| 20260506092732 | 17 | 229 | 3.2 | 3.2 | 0.00 | 0.00 | 0.00 | 82 | 1009.9 |
| 20260506092230 | 17 | 209 | 3.2 | 4.8 | 0.00 | 0.00 | 0.00 | 81 | 1010.0 |
| 20260506091726 | 17 | 210 | 6.4 | 12.9 | 0.00 | 0.00 | 0.00 | 81 | 1009.9 |
| 20260506091224 | 17 | 196 | 8.0 | 11.3 | 0.00 | 0.00 | 0.00 | 81 | 1010.1 |
| 20260506090721 | 17 | 218 | 6.4 | 9.7 | 0.00 | 0.00 | 0.00 | 81 | 1010.3 |
| 20260506090218 | 17 | 190 | 3.2 | 4.8 | 0.00 | 0.00 | 0.00 | 81 | 1010.1 |
| 20260506085710 | 17 | 184 | 4.8 | 4.8 | 0.00 | 0.00 | 0.00 | 81 | 1010.1 |
| 20260506085206 | 17 | 227 | 4.8 | 4.8 | 0.00 | 0.00 | 0.00 | 82 | 1010.2 |
| 20260506084702 | 17 | 171 | 6.4 | 9.7 | 0.00 | 0.00 | 0.00 | 81 | 1010.2 |
| 20260506084159 | 17 | 207 | 6.4 | 9.7 | 0.00 | 0.00 | 0.00 | 81 | 1010.4 |
| 20260506083655 | 17 | 225 | 6.4 | 9.7 | 0.00 | 0.00 | 0.00 | 81 | 1010.4 |
| 20260506083154 | 17 | 208 | 4.8 | 9.7 | 0.00 | 0.00 | 0.00 | 81 | 1010.3 |
| 20260506082650 | 17 | 212 | 3.2 | 4.8 | 0.00 | 0.00 | 0.00 | 81 | 1010.5 |
| 20260506082145 | 17 | 203 | 8.0 | 12.9 | 0.00 | 0.00 | 0.00 | 81 | 1010.4 |
| 20260506081643 | 17 | 190 | 3.2 | 4.8 | 0.00 | 0.00 | 0.00 | 82 | 1010.4 |
| 20260506081141 | 17 | 197 | 3.2 | 4.8 | 0.00 | 0.00 | 0.00 | 81 | 1010.6 |
| 20260506080639 | 17 | 237 | 1.6 | 3.2 | 0.00 | 0.00 | 0.00 | 81 | 1010.6 |
| 20260506080135 | 17 | 204 | 3.2 | 4.8 | 0.00 | 0.00 | 0.00 | 81 | 1010.4 |
| 20260506073119 | 17 | 203 | 1.6 | 1.6 | 0.00 | 0.00 | 0.00 | 81 | 1010.5 |
| 20260506072615 | 17 | 200 | 3.2 | 4.8 | 0.00 | 0.00 | 0.00 | 80 | 1010.4 |
| 20260506072114 | 17 | 212 | 4.8 | 6.4 | 0.00 | 0.00 | 0.00 | 80 | 1010.6 |
| 20260506071611 | 17 | 182 | 4.8 | 6.4 | 0.00 | 0.00 | 0.00 | 80 | 1010.4 |
| 20260506071108 | 17 | 181 | 3.2 | 3.2 | 0.00 | 0.00 | 0.00 | 80 | 1010.5 |
| 20260506070605 | 18 | 208 | 3.2 | 4.8 | 0.00 | 0.00 | 0.00 | 80 | 1010.5 |
| 20260506062039 | 18 | 229 | 8.0 | 12.9 | 0.00 | 0.00 | 0.00 | 79 | 1010.5 |
| 20260506061535 | 18 | 192 | 3.2 | 3.2 | 0.00 | 0.00 | 0.00 | 78 | 1010.8 |
| 20260506061033 | 18 | 189 | 9.7 | 17.7 | 0.00 | 0.00 | 0.00 | 78 | 1010.4 |
| 20260506060531 | 18 | 232 | 8.0 | 11.3 | 0.00 | 0.00 | 0.00 | 78 | 1010.8 |
| 20260506051000 | 19 | 222 | 1.6 | 1.6 | 0.00 | 0.00 | 0.00 | 75 | 1010.7 |
| 20260506050458 | 19 | 215 | 8.0 | 12.9 | 0.00 | 0.00 | 0.00 | 75 | 1010.9 |
| 20260506044948 | 19 | 215 | 3.2 | 6.4 | 0.00 | 0.00 | 0.00 | 74 | 1011.0 |
| 20260506044446 | 19 | 202 | 8.0 | 12.9 | 0.00 | 0.00 | 0.00 | 74 | 1010.8 |
| 20260506043943 | 19 | 244 | 4.8 | 9.7 | 0.00 | 0.00 | 0.00 | 74 | 1011.0 |
| 20260506043440 | 19 | 232 | 6.4 | 9.7 | 0.00 | 0.00 | 0.00 | 74 | 1011.2 |
| 20260506042938 | 19 | 207 | 11.3 | 14.5 | 0.00 | 0.00 | 0.00 | 74 | 1011.2 |
| 20260506042437 | 19 | 220 | 3.2 | 4.8 | 0.00 | 0.00 | 0.00 | 74 | 1011.1 |
| 20260506041935 | 19 | 211 | 4.8 | 6.4 | 0.00 | 0.00 | 0.00 | 73 | 1011.0 |
| 20260506041432 | 19 | 205 | 8.0 | 12.9 | 0.00 | 0.00 | 0.00 | 73 | 1011.0 |
| 20260506040929 | 19 | 198 | 11.3 | 14.5 | 0.00 | 0.00 | 0.00 | 73 | 1011.2 |
| 20260506040427 | 19 | 193 | 1.6 | 1.6 | 0.00 | 0.00 | 0.00 | 72 | 1011.1 |
| 20260506035923 | 19 | 204 | 6.4 | 11.3 | 0.00 | 0.00 | 0.00 | 72 | 1011.0 |
| 20260506035421 | 19 | 189 | 6.4 | 9.7 | 0.00 | 0.00 | 0.00 | 72 | 1011.0 |
| 20260506034917 | 19 | 206 | 4.8 | 6.4 | 0.00 | 0.00 | 0.00 | 72 | 1010.9 |
| 20260506034414 | 19 | 237 | 8.0 | 11.3 | 0.00 | 0.00 | 0.00 | 72 | 1011.0 |
| 20260506033911 | 20 | 191 | 9.7 | 11.3 | 0.00 | 0.00 | 0.00 | 72 | 1011.1 |
| 20260506033409 | 20 | 221 | 3.2 | 3.2 | 0.00 | 0.00 | 0.00 | 70 | 1011.0 |
| 20260506032905 | 20 | 230 | 12.9 | 20.9 | 0.00 | 0.00 | 0.00 | 70 | 1011.1 |
| 20260506032402 | 20 | 206 | 6.4 | 9.7 | 0.00 | 0.00 | 0.00 | 70 | 1010.9 |
| 20260506031859 | 20 | 221 | 12.9 | 12.9 | 0.00 | 0.00 | 0.00 | 70 | 1011.0 |
| 20260506031356 | 20 | 193 | 3.2 | 4.8 | 0.00 | 0.00 | 0.00 | 69 | 1010.9 |
| 20260506030854 | 20 | 179 | 9.7 | 11.3 | 0.00 | 0.00 | 0.00 | 69 | 1011.1 |
| 20260506030352 | 20 | 193 | 12.9 | 16.1 | 0.00 | 0.00 | 0.00 | 69 | 1011.0 |
| 20260506025848 | 20 | 189 | 14.5 | 17.7 | 0.00 | 0.00 | 0.00 | 69 | 1011.3 |
| 20260506025344 | 20 | 229 | 9.7 | 11.3 | 0.00 | 0.00 | 0.00 | 68 | 1011.1 |
| 20260506024842 | 20 | 212 | 8.0 | 11.3 | 0.00 | 0.00 | 0.00 | 68 | 1011.1 |
| 20260506024338 | 20 | 208 | 6.4 | 9.7 | 0.00 | 0.00 | 0.00 | 67 | 1011.0 |
| 20260506023835 | 20 | 192 | 16.1 | 22.5 | 0.00 | 0.00 | 0.00 | 67 | 1011.0 |
| 20260506023331 | 20 | 190 | 6.4 | 12.9 | 0.00 | 0.00 | 0.00 | 66 | 1011.1 |
| 20260506022828 | 20 | 162 | 4.8 | 6.4 | 0.00 | 0.00 | 0.00 | 66 | 1011.3 |
| 20260506022326 | 20 | 191 | 8.0 | 11.3 | 0.00 | 0.00 | 0.00 | 64 | 1011.2 |
| 20260506021824 | 20 | 190 | 6.4 | 9.7 | 0.00 | 0.00 | 0.00 | 64 | 1011.0 |
| 20260506021321 | 20 | 191 | 4.8 | 6.4 | 0.00 | 0.00 | 0.00 | 64 | 1011.1 |
| 20260506020817 | 20 | 203 | 6.4 | 9.7 | 0.00 | 0.00 | 0.00 | 63 | 1011.0 |
| 20260506020315 | 21 | 217 | 11.3 | 14.5 | 0.00 | 0.00 | 0.00 | 62 | 1010.8 |
| 20260506015813 | 21 | 202 | 12.9 | 16.1 | 0.00 | 0.00 | 0.00 | 62 | 1010.9 |
| 20260506015310 | 21 | 194 | 3.2 | 4.8 | 0.00 | 0.00 | 0.00 | 61 | 1010.8 |
| 20260506014806 | 21 | 191 | 6.4 | 11.3 | 0.00 | 0.00 | 0.00 | 61 | 1010.9 |
| 20260506014303 | 21 | 182 | 6.4 | 9.7 | 0.00 | 0.00 | 0.00 | 61 | 1010.8 |
| 20260506013800 | 21 | 193 | 3.2 | 6.4 | 0.00 | 0.00 | 0.00 | 60 | 1010.9 |
| 20260506013257 | 21 | 207 | 8.0 | 11.3 | 0.00 | 0.00 | 0.00 | 59 | 1010.7 |
| 20260506012754 | 21 | 210 | 6.4 | 12.9 | 0.00 | 0.00 | 0.00 | 59 | 1010.7 |
| 20260506012251 | 21 | 196 | 4.8 | 4.8 | 0.00 | 0.00 | 0.00 | 60 | 1010.6 |
| 20260506011748 | 21 | 221 | 8.0 | 11.3 | 0.00 | 0.00 | 0.00 | 59 | 1010.7 |
| 20260506011244 | 21 | 197 | 3.2 | 4.8 | 0.00 | 0.00 | 0.00 | 59 | 1010.5 |
| 20260506010743 | 21 | 164 | 9.7 | 11.3 | 0.00 | 0.00 | 0.00 | 58 | 1010.6 |
| 20260506010240 | 21 | 168 | 4.8 | 6.4 | 0.00 | 0.00 | 0.00 | 59 | 1010.8 |
| 20260506005737 | 21 | 190 | 6.4 | 9.7 | 0.00 | 0.00 | 0.00 | 58 | 1010.4 |
| 20260506005233 | 21 | 162 | 11.3 | 14.5 | 0.00 | 0.00 | 0.00 | 58 | 1010.5 |
| 20260506004729 | 21 | 219 | 4.8 | 4.8 | 0.00 | 0.00 | 0.00 | 58 | 1010.6 |
| 20260506004227 | 21 | 228 | 8.0 | 12.9 | 0.00 | 0.00 | 0.00 | 58 | 1010.2 |
| 20260506003723 | 22 | 190 | 6.4 | 9.7 | 0.00 | 0.00 | 0.00 | 58 | 1010.1 |
| 20260506003220 | 22 | 210 | 9.7 | 12.9 | 0.00 | 0.00 | 0.00 | 58 | 1010.2 |
| 20260506002715 | 22 | 177 | 14.5 | 20.9 | 0.00 | 0.00 | 0.00 | 59 | 1010.0 |
| 20260506002212 | 22 | 194 | 9.7 | 11.3 | 0.00 | 0.00 | 0.00 | 58 | 1009.9 |
| 20260506001708 | 22 | 162 | 8.0 | 11.3 | 0.00 | 0.00 | 0.00 | 58 | 1010.3 |
| 20260506001206 | 22 | 178 | 4.8 | 6.4 | 0.00 | 0.00 | 0.00 | 57 | 1009.9 |
| 20260506000702 | 22 | 212 | 14.5 | 16.1 | 0.00 | 0.00 | 0.00 | 56 | 1010.0 |
| 20260506000200 | 22 | 179 | 17.7 | 27.4 | 0.00 | 0.00 | 0.00 | 55 | 1010.0 |
| 20260505235657 | 22 | 176 | 6.4 | 11.3 | 0.00 | 0.00 | 0.00 | 54 | 1010.0 |
| 20260505235155 | 22 | 238 | 9.7 | 14.5 | 0.00 | 0.00 | 0.00 | 54 | 1009.8 |
| 20260505234651 | 23 | 259 | 12.9 | 16.1 | 0.00 | 0.00 | 0.00 | 53 | 1009.9 |
| 20260505234149 | 23 | 187 | 3.2 | 4.8 | 0.00 | 0.00 | 0.00 | 52 | 1009.9 |
| 20260505233645 | 23 | 238 | 9.7 | 14.5 | 0.00 | 0.00 | 0.00 | 50 | 1010.0 |
| 20260505233143 | 23 | 222 | 6.4 | 9.7 | 0.00 | 0.00 | 0.00 | 49 | 1009.4 |
| 20260505232640 | 23 | 177 | 4.8 | 6.4 | 0.00 | 0.00 | 0.00 | 48 | 1009.5 |
| 20260505232138 | 24 | 219 | 6.4 | 9.7 | 0.00 | 0.00 | 0.00 | 47 | 1009.6 |
| 20260505231634 | 24 | 215 | 3.2 | 6.4 | 0.00 | 0.00 | 0.00 | 46 | 1009.4 |
| 20260505231133 | 25 | 177 | 6.4 | 9.7 | 0.00 | 0.00 | 0.00 | 45 | 1009.2 |
| 20260505230631 | 25 | 218 | 9.7 | 12.9 | 0.00 | 0.00 | 0.00 | 44 | 1009.2 |
| 20260505230127 | 25 | 174 | 8.0 | 9.7 | 0.00 | 0.00 | 0.00 | 42 | 1009.1 |
| 20260505225623 | 25 | 221 | 6.4 | 9.7 | 0.00 | 0.00 | 0.00 | 40 | 1009.3 |
| 20260505225120 | 26 | 206 | 1.6 | 3.2 | 0.00 | 0.00 | 0.00 | 40 | 1009.1 |
| 20260505224616 | 26 | 194 | 9.7 | 14.5 | 0.00 | 0.00 | 0.00 | 40 | 1009.2 |
| 20260505224114 | 26 | 250 | 8.0 | 12.9 | 0.00 | 0.00 | 0.00 | 39 | 1009.2 |
| 20260505223611 | 26 | 186 | 16.1 | 17.7 | 0.00 | 0.00 | 0.00 | 39 | 1009.0 |
| 20260505223107 | 26 | 189 | 12.9 | 17.7 | 0.00 | 0.00 | 0.00 | 39 | 1009.1 |
| 20260505222604 | 26 | 179 | 6.4 | 9.7 | 0.00 | 0.00 | 0.00 | 39 | 1009.2 |
| 20260505222100 | 26 | 179 | 17.7 | 25.7 | 0.00 | 0.00 | 0.00 | 39 | 1009.2 |
| 20260505221557 | 26 | 210 | 8.0 | 12.9 | 0.00 | 0.00 | 0.00 | 40 | 1008.9 |
| 20260505221053 | 26 | 217 | 4.8 | 4.8 | 0.00 | 0.00 | 0.00 | 40 | 1009.0 |
| 20260505220551 | 26 | 213 | 4.8 | 4.8 | 0.00 | 0.00 | 0.00 | 39 | 1009.2 |
| 20260505220048 | 26 | 182 | 9.7 | 16.1 | 0.00 | 0.00 | 0.00 | 37 | 1009.1 |
| 20260505215546 | 26 | 172 | 9.7 | 12.9 | 0.00 | 0.00 | 0.00 | 37 | 1008.8 |
| 20260505215044 | 27 | 149 | 11.3 | 14.5 | 0.00 | 0.00 | 0.00 | 37 | 1008.9 |
| 20260505214542 | 27 | 207 | 11.3 | 14.5 | 0.00 | 0.00 | 0.00 | 37 | 1009.0 |
| 20260505214038 | 27 | 180 | 3.2 | 3.2 | 0.00 | 0.00 | 0.00 | 36 | 1008.8 |
| 20260505213536 | 27 | 161 | 6.4 | 9.7 | 0.00 | 0.00 | 0.00 | 37 | 1008.6 |
| 20260505213032 | 27 | 171 | 3.2 | 3.2 | 0.00 | 0.00 | 0.00 | 37 | 1008.8 |
| 20260505212529 | 27 | 194 | 3.2 | 11.3 | 0.00 | 0.00 | 0.00 | 36 | 1008.7 |
| 20260505212026 | 27 | 239 | 8.0 | 12.9 | 0.00 | 0.00 | 0.00 | 37 | 1008.3 |
| 20260505211523 | 27 | 189 | 8.0 | 11.3 | 0.00 | 0.00 | 0.00 | 36 | 1008.3 |
| 20260505211020 | 27 | 246 | 8.0 | 14.5 | 0.00 | 0.00 | 0.00 | 36 | 1008.6 |
| 20260505210516 | 27 | 114 | 6.4 | 12.9 | 0.00 | 0.00 | 0.00 | 35 | 1008.4 |
| 20260505210014 | 27 | 238 | 3.2 | 9.7 | 0.00 | 0.00 | 0.00 | 35 | 1008.4 |
| 20260505205512 | 28 | 178 | 19.3 | 25.7 | 0.00 | 0.00 | 0.00 | 35 | 1008.6 |
| 20260505205009 | 28 | 264 | 8.0 | 11.3 | 0.00 | 0.00 | 0.00 | 35 | 1008.5 |
| 20260505204506 | 28 | 222 | 6.4 | 6.4 | 0.00 | 0.00 | 0.00 | 35 | 1008.5 |
| 20260505204003 | 28 | 174 | 1.6 | 1.6 | 0.00 | 0.00 | 0.00 | 37 | 1008.4 |
| 20260505203459 | 28 | 305 | 6.4 | 12.9 | 0.00 | 0.00 | 0.00 | 36 | 1008.5 |
| 20260505202956 | 28 | 210 | 4.8 | 9.7 | 0.00 | 0.00 | 0.00 | 35 | 1008.3 |
| 20260505202453 | 28 | 198 | 12.9 | 22.5 | 0.00 | 0.00 | 0.00 | 35 | 1008.3 |
| 20260505201949 | 28 | 247 | 11.3 | 16.1 | 0.00 | 0.00 | 0.00 | 34 | 1008.3 |
| 20260505201446 | 28 | 228 | 8.0 | 11.3 | 0.00 | 0.00 | 0.00 | 34 | 1008.2 |
| 20260505200944 | 28 | 227 | 3.2 | 4.8 | 0.00 | 0.00 | 0.00 | 35 | 1008.6 |
| 20260505200441 | 28 | 243 | 9.7 | 16.1 | 0.00 | 0.00 | 0.00 | 34 | 1008.4 |
| 20260505195937 | 28 | 170 | 8.0 | 11.3 | 0.00 | 0.00 | 0.00 | 36 | 1008.3 |
| 20260505195434 | 28 | 225 | 11.3 | 16.1 | 0.00 | 0.00 | 0.00 | 36 | 1008.4 |
| 20260505194931 | 28 | 255 | 16.1 | 22.5 | 0.00 | 0.00 | 0.00 | 35 | 1008.6 |
| 20260505194429 | 28 | 338 | 6.4 | 11.3 | 0.00 | 0.00 | 0.00 | 37 | 1008.7 |
| 20260505193928 | 28 | 215 | 16.1 | 17.7 | 0.00 | 0.00 | 0.00 | 36 | 1008.8 |
| 20260505193426 | 28 | 232 | 6.4 | 9.7 | 0.00 | 0.00 | 0.00 | 36 | 1009.0 |